カタログに戻る

COSMOS 1375 DEB

運用中LEO
NORAD 17090·DEBRIS·🇷🇺 Russia

打ち上げ Jun 6, 1982 から Plesetsk Cosmodrome

Loading…

次のパス (今後24時間)

TLE

最新Source: Space-Track

元期: Sep 13, 2026, 17:16 UTC

1 17090U 82055AC  26256.72012988 -.00000053  00000-0  26396-4 0  9994
2 17090  65.8381 357.5594 0053870 328.4922 193.4019 13.84042622 63885

AllMySatでCOSMOS 1375 DEBをリアルタイム追跡

Download on the App Store